Weather in Sredniy Ubukun

Russia / Republic of Buryatia     51°27′32″N   106°43′16″E
temp.,
°C
wind,
m/s
gust,
m/s
humid.,
%
clouds,
%
prec.,
mm/h
press.,
hPa
HPBL,
m
29 june, wed
wed2923:00+22ne11461 0.0 100011
02:00+16nw35846 0.6 1005120
05:00+17nnw22919 0.0 100550
08:00+19nw367674 0.1 1007615
11:00+22nw456645 0.2 1007619
14:00+26nw34516 0.2 1005622
17:00+31nw33306 0.0 10011176
20:00+26nnw22501 0.0 100266
30 june, thu
thu3023:00+18nw22886 1.6 100526
02:00+16nw2289100 1.6 100512
05:00+16n119098 0.0 100411
08:00+21nne117060 0.0 1004318
11:00+27se2245100 0.0 10031063
14:00+28ssw2241100 0.0 1001977
17:00+29sw22355 0.0 9991218
20:00+28wnw224468 0.0 100021
1 july, fri
fri123:00+18nnw2285100 0.1 100226
02:00+18wnw2288100 1.8 100322
05:00+18w118797 0.6 100311
08:00+20ssw2375100 0.6 1003405
11:00+24ssw355948 0.0 1003750
14:00+30sw43370 0.0 10001787
17:00+32ssw33270 0.0 9981853
20:00+28ssw22380 0.0 99818
2 july, sat
sat223:00+22nnw21495 0.0 100012
02:00+18nw3278100 1.4 100231
05:00+17nnw228199 0.0 100111
08:00+22ene226536 0.0 1001238
11:00+29se233779 0.0 999818
14:00+36ssw3520100 0.0 9962507
17:00+37ssw24167 0.0 9943165
20:00+28nnw454091 0.0 994159
3 july, sun
sun323:00+18nw6157656 0.0 1000509
02:00+16nw41188100 0.0 1002627
05:00+14nw31191100 0.0 1003645
08:00+13nw61490100 0.1 1005745
11:00+13nw31192100 1.3 1006797
14:00+13nw31089100 1.8 1006789
17:00+14nnw31083100 0.0 1004734
20:00+14wnw2787100 0.3 1004588